This demonstration page uses our WeatherBlox Daily Observations layout. Learn more.

39.29038, -76.61219

Hourly Observations for October 23, 2019

Temp ( °F °C ) Dew Point ( °F °C ) Humidity (%) Winds ( mph kmh ) Pressure ( in mb ) Visibility ( mi km ) Precip ( " mm )
12:54 am 00:54 undefined 57 13.9 55 12.8 93 93 undefined N/A 29.83 1010 N/A 0 0
1:54 am 01:54 undefined 56 13.3 53 11.7 90 90 undefined N/A 29.83 1010 N/A 0 0
2:54 am 02:54 undefined 55 12.8 52 11.1 90 90 undefined N/A 29.85 1011 N/A 0 0
3:54 am 03:54 undefined 55 12.8 52 11.1 90 90 undefined N/A 29.88 1012 N/A 0 0
4:54 am 04:54 undefined 54 12.2 51 10.6 90 90 undefined N/A 29.9 1012 N/A 0 0
5:54 am 05:54 undefined 53 11.7 50 10 89 89 undefined N/A 29.93 1014 N/A 0 0
6:54 am 06:54 undefined 53 11.7 49 9.4 86 86 undefined N/A 29.96 1015 N/A 0 0
7:54 am 07:54 undefined 53 11.7 49 9.4 86 86 undefined N/A 29.99 1016 N/A 0 0
8:54 am 08:54 undefined 56 13.3 50 10 81 81 undefined N/A 30.05 1018 N/A 0 0
9:54 am 09:54 undefined 60 15.6 47 8.3 62 62 undefined N/A 30.08 1019 N/A 0 0
10:54 am 10:54 undefined 62 16.7 44 6.7 52 52 undefined N/A 30.08 1019 N/A 0 0
11:54 am 11:54 undefined 64 17.8 41 5 43 43 undefined N/A 30.08 1019 N/A 0 0
12:54 pm 12:54 undefined 65 18.3 39 3.9 39 39 undefined N/A 30.06 1018 N/A 0 0
1:54 pm 13:54 undefined 65 18.3 37 2.8 36 36 undefined N/A 30.05 1018 N/A 0 0
2:54 pm 14:54 undefined 65 18.3 37 2.8 36 36 undefined N/A 30.06 1018 N/A 0 0
3:54 pm 15:54 undefined 65 18.3 34 1.1 32 32 undefined N/A 30.05 1018 N/A 0 0
4:54 pm 16:54 undefined 65 18.3 35 1.7 33 33 undefined N/A 30.05 1018 N/A 0 0
5:54 pm 17:54 undefined 65 18.3 34 1.1 32 32 undefined N/A 30.09 1019 N/A 0 0
6:54 pm 18:54 undefined 63 17.2 35 1.7 35 35 undefined N/A 30.12 1020 N/A 0 0
7:54 pm 19:54 undefined 61 16.1 34 1.1 36 36 undefined N/A 30.15 1021 N/A 0 0
8:54 pm 20:54 undefined 59 15 36 2.2 42 42 undefined N/A 30.17 1022 N/A 0 0
9:54 pm 21:54 undefined 58 14.4 35 1.7 42 42 undefined N/A 30.2 1023 N/A 0 0
10:54 pm 22:54 undefined 58 14.4 33 0.6 39 39 undefined N/A 30.22 1023 N/A 0 0
11:54 pm 23:54 undefined 58 14.4 33 0.6 39 39 undefined N/A 30.21 1023 N/A 0 0

Powered by AerisWeather